DELTA 1 DEB, 26841

Orbit data source: Space-Track

DELTA 1 DEB, 26841 is space debris in SSO originally from a launch on Thu, 12 Jun 1975 UTC launched from the Air Force Western Test Range (AFWTR). Debris objects in space refer to the collection of defunct objects orbiting the Earth. Examples of debris include non-operational satellites, rocket bodies, and fragments generated from explosions, collisions, or faulty payload assembly.

Loading next visibility...
Identifier
26841, 1975-052KV
Orbit
SSO
Country
Flag of USUS
Related business
Manufacturer
Unknown
Mission
Spacecraft
Bus & Motor
Unknown
Mass
Unknown
Launch date (UTC)
1975-06-12 (51 years ago)
Launch vehicle
Unknown
Launch site
Air Force Western Test Range (AFWTR)
Object type
Payload
Rocket body
Debris
Shape & HBR
Unknown shape, 0.1 m
Radar Cross Section
Small (<0.1 m²)

Expand to show TLE details & history
Last TLE update: 1 day ago

TLE from 1 day ago
0 DELTA 1 DEB
1 26841U 75052KV  25349.47766355  .00000952  00000-0  21874-2 0  9996
2 26841  99.8922 335.9499 0505836 222.8502 294.8374 12.88981702547427
Epoch: 2025-12-15T11:27Z
TLE epoch observation values (Epoch: 2025-12-15T11:27:50.130Z)
Latitude
27.30056°
Longitude
-95.24686°
Altitude
1,162.145 km
Speed
7.343 km/s
True Right ascension
10h 44m 21s
True Declination
27° 10' 05"
Sunlit
Object was in daylight at epoch
Visualization orbit readout
Latitude
Unknown
Longitude
Unknown
Altitude
Unknown
Speed
Unknown
Apparent Right ascension
Unknown
Apparent Declination
Unknown
Sunlit
N/A
Visualization observer readout
Local Sidereal Time
21:33:44
Azimuth
Unknown
Elevation
Unknown
Doppler factor
Unknown
Orbital elements
Apogee altitude
1,691.488 km
Perigee altitude
914.414 km
Semi-major axis
7,681.088 km
Eccentricity
0.05058
Inclination
99.8922°
RAAN
335.9499°
Arg. of periapsis
222.8502°
True anomaly
289.44175°
Mean anomaly
294.8374°
Eccentric anomaly
292.15312°
Mean motion
3.2241 °/min
Orbital period
111.66 mins
BSTAR
0.0021874
Loading maneuver chart data...
Computing Atmospheric mass density...
Loading historical data...
Loading historical data...
Loading historical data...
Loading historical data...
Loading historical data...
Loading historical data...
Loading historical data...

Documentation

Showing up to 5 results
|